Content
SEND FEEDBACK

Daily
Averages
Monthly
Summary
India

KANPUR, INDIA


Home > Asia > India
Elevation: 405 feet     Latitude: 26 24N     Longitude: 080 24E

WEATHER
 
SELECT A DAY
Number of Records: 207,441;   Date Range: 7/2/96 - 4/21/13
 
SHARE

PRINT THIS DATA

[ ← Previous Day ]
WEATHER ALMANAC - JANUARY 31, 2013
[ Next Day → ]
[ °C ]   °F
Weather ElementAverageHighLow
Temperature57.8 °F73.4 °F (3:00 pm)44.6 °F (7:30 am)
Dewpoint48.5 °F54 °F (11:30 am)44.6 °F (7:30 am)
Humidity73.7 %100 % (7:00 am)38 % (3:00 pm)
Barometer30.05 in30.12 in (8:30 am)30.01 in (4:00 am)
Wind Speed1.9 mph4.6 mph (5:00 am)
Weather ElementAverage
Visibility0.8 mi
Wind DirectionESE (113.9 °)

Weather ElementTotal
Precipitation---
Heating Degree Days6 (Base 65)
Growing Degree Days9 (Base 50)
Averaged from 28 records on January 31, 2013
WEATHER CONDITIONS BREAKOUT
WIND DIRECTION BREAKOUT
WEATHER BY HOUR - JANUARY 31, 2013
[ °C ]   °F
Local TimeTemperatureDewpointHumidityBarometerVisibilityWind DirectionWind SpeedGust SpeedPrecipitationEventsConditions
2:00 AM50.0 °F46.4 °F87 %30.04 in0.4 miCalmFogShallow Fog
2:30 AM49.0 °F47.0 °F91 %30.06 in0.0 miCalmFogPatches of Fog
3:00 AM48.2 °F46.4 °F93 %30.04 in0.2 miCalmFogFog
4:00 AM48.2 °F46.4 °F93 %30.01 in0.1 miCalmFogFog
5:00 AM48.2 °F46.4 °F93 %30.01 in0.1 miWest (270°)4.6 mphFogFog
6:00 AM48.2 °F46.4 °F93 %30.04 inWest (270°)2.3 mphFogFog
7:00 AM46.4 °F46.4 °F100 %30.06 inWest (270°)2.3 mphFogFog
7:30 AM44.6 °F44.6 °F100 %30.06 inWest (270°)2.3 mphFogFog
8:00 AM46.4 °F44.6 °F93 %30.06 inCalmFogFog
8:30 AM47.0 °F46.0 °F93 %30.12 in0.0 mi°2.3 mphFogHeavy Fog
8:30 AM46.4 °F46.4 °F100 %30.06 inVariable2.3 mphFogFog
9:00 AM48.2 °F46.4 °F93 %30.09 in0.1 miCalmFogFog
10:30 AM62.6 °F53.6 °F72 %30.09 in0.6 miVariable2.3 mphFogShallow Fog
11:00 AM64.4 °F53.6 °F68 %30.06 in0.7 miNNW (340°)3.5 mphFogShallow Fog
11:30 AM69.0 °F54.0 °F49 %30.10 in1.0 mi°2.3 mphHaze
12:30 PM71.6 °F53.6 °F53 %30.06 in0.9 miNW (320°)3.5 mphHaze
1:00 PM71.6 °F51.8 °F50 %30.04 in0.9 miNW (320°)4.6 mphHaze
3:00 PM73.4 °F46.4 °F38 %30.01 in1.2 miVariable2.3 mphHaze
4:30 PM71.6 °F46.4 °F41 %30.01 in1.9 miWNW (290°)4.6 mphHaze
5:00 PM71.6 °F46.4 °F41 %30.01 in1.6 miWest (270°)3.5 mphHaze
5:30 PM69.8 °F50.0 °F49 %30.01 in1.6 miVariable2.3 mphHaze
5:30 PM70.0 °F50.0 °F38 %30.02 in1.0 mi°2.3 mphHaze
7:00 PM64.4 °F48.2 °F56 %30.01 in1.2 miVariable2.3 mphHaze
7:30 PM62.6 °F48.2 °F59 %30.01 in1.2 miVariable2.3 mphHaze
9:00 PM59.0 °F50.0 °F72 %30.04 in0.9 miCalmMist
10:00 PM57.2 °F51.8 °F82 %30.06 in0.9 miVariable2.3 mphMist
11:00 PM55.4 °F50.0 °F82 %30.04 in0.9 miCalmMist
11:30 PM54.0 °F51.0 °F84 %30.08 in1.0 miCalmMist
Hourly data recorded from VIKA, located 0.80 miles away from Kanpur, India







STORIES FROM OUR PARTNERS